Weather History for MDSD - December, 2013

Change the Weather History Date:

Tuesday, December 24, 2013

  Actual Average Record
Temperature  
Mean Temperature 76 °F -  
Max Temperature 85 °F 85 °F 89 °F (1998)
Min Temperature 68 °F 66 °F 59 °F (2010)
Cooling Degree Days 12    
Growing Degree Days 26 (Base 50)    
Moisture  
Dew Point 70 °F    
Average Humidity 86    
Maximum Humidity 100    
Minimum Humidity 70    
Precipitation  
Precipitation 0.00 in 0.06 in - ()
Sea Level Pressure  
Sea Level Pressure 29.95 in    
Wind  
Wind Speed 7 mph ()    
Max Wind Speed 14 mph    
Max Gust Speed -    
Visibility 6.5 miles    
Events Rain , Thunderstorm    
Averages and records for this station are not official NWS values.
T = Trace of Precipitation, MM = Missing Value Source: Averaged Metar Reports

Daily Weather History Graph

Daily Weather History Graph

Search for Another Location

Airport or City:

Trip Planner

Search our weather history database for the weather conditions in past years. The results will help you decide how hot, cold, wet, or windy it might be!

Date:

Astronomy

Dec. 24, 2013 Rise Set
Actual Time 7:07 AM AST 6:09 PM AST
Civil Twilight 6:43 AM AST 6:33 PM AST
Nautical Twilight 6:16 AM AST 7:00 PM AST
Astronomical Twilight 5:49 AM AST 7:27 PM AST
Moon No Moon Rise 11:51 AM AST (12/24)
Length of Visible Light 11h 49m
Length of Day
11h 01m
Waning Gibbous, 59% of the Moon is Illuminated
Dec 24
Waning Gibbous
Dec 25
Last Quarter
Jan 1
New
Jan 7
First Quarter
Jan 16
Full

Hourly Weather History & Observations

Time (AST) Temp. Heat Index Dew Point Humidity Pressure Visibility Wind Dir Wind Speed Gust Speed Precip Events Conditions
12:00 AM 71.6 °F - 69.8 °F 94% 30.01 in 6.2 mi Variable 3.5 mph - N/A Thunderstorm Thunderstorm
1:00 AM 71.6 °F - 69.8 °F 94% 2.98 in 6.2 mi North 5.8 mph - N/A Thunderstorm Light Thunderstorm
2:00 AM 71.6 °F - 69.8 °F 94% 2.98 in 6.2 mi North 4.6 mph - N/A Thunderstorm Light Thunderstorm
3:00 AM 71.6 °F - 69.8 °F 94% 2.98 in 6.2 mi North 5.8 mph - N/A Thunderstorm Light Thunderstorm
4:00 AM 71.6 °F - 69.8 °F 94% 29.95 in 6.2 mi North 6.9 mph - N/A Thunderstorm Thunderstorm
5:00 AM 71.6 °F - 69.8 °F 94% 29.95 in 6.2 mi North 6.9 mph - N/A Thunderstorm Thunderstorm
6:00 AM 69.8 °F - 69.8 °F 100% - 4.3 mi NNE 9.2 mph - N/A Rain , Thunderstorm Light Thunderstorms and Rain
7:00 AM 68.0 °F - 68.0 °F 100% - 5.0 mi NE 5.8 mph - N/A Rain , Thunderstorm Light Thunderstorms and Rain
8:00 AM 69.8 °F - 66.2 °F 88% 29.98 in 6.2 mi North 6.9 mph - N/A   Scattered Clouds
9:00 AM 71.6 °F - 66.2 °F 83% 29.98 in 6.2 mi North 10.4 mph - N/A   Scattered Clouds
10:00 AM 75.2 °F - 69.8 °F 83% 30.01 in 6.2 mi NNE 9.2 mph - N/A   Scattered Clouds
10:10 AM 75.2 °F - 69.8 °F 83% 30.01 in 6.2 mi NNE 9.2 mph - N/A   Scattered Clouds
11:00 AM 79 °F - 72 °F 74% 30.01 in 9 mi North 11.2 mph - -   Haze
11:00 AM 78.8 °F - 71.6 °F 78% 30.01 in 6.2 mi North 11.5 mph - N/A   Scattered Clouds
12:00 PM 82.4 °F 88.2 °F 73.4 °F 74% 29.98 in 6.2 mi NNE 13.8 mph - N/A   Scattered Clouds
1:00 PM 84.2 °F 90.9 °F 73.4 °F 70% 29.95 in 6.2 mi NNE 8.1 mph - N/A   Scattered Clouds
2:00 PM 84.2 °F 90.9 °F 73.4 °F 70% 29.92 in 6.2 mi NNE 13.8 mph - N/A   Scattered Clouds
3:00 PM 84.2 °F 92.3 °F 75.2 °F 74% 29.92 in 6.2 mi NNE 11.5 mph - N/A   Scattered Clouds
4:00 PM 82.4 °F 88.2 °F 73.4 °F 74% 29.89 in 6.2 mi NNE 11.5 mph - N/A   Scattered Clouds
5:00 PM 80.6 °F 85.4 °F 73.4 °F 79% 29.89 in 6.2 mi NNE 9.2 mph - N/A   Scattered Clouds
6:00 PM 78.8 °F - 73.4 °F 83% 29.92 in 6.2 mi North 6.9 mph - N/A Thunderstorm Thunderstorm
7:00 PM 75.2 °F - 69.8 °F 83% 29.92 in 6.2 mi NNE 11.5 mph - N/A Thunderstorm Thunderstorm
8:00 PM 73 °F - 70 °F 89% 29.93 in 10 mi North 6.7 mph - -   Partly Cloudy
8:00 PM 73.4 °F - 69.8 °F 88% 29.92 in 6.2 mi North 6.9 mph - N/A   Partly Cloudy
9:00 PM 71.6 °F - 69.8 °F 94% 29.95 in 6.2 mi NNE 11.5 mph - N/A   Partly Cloudy
10:00 PM 69.8 °F - 68.0 °F 94% 29.95 in 6.2 mi NNE 11.5 mph - N/A   Partly Cloudy
11:00 PM 69 °F - 67 °F 93% 29.95 in 10 mi NNE 11.2 mph - -   Partly Cloudy
11:00 PM 69.8 °F - 68.0 °F 94% 29.95 in 6.2 mi NNE 11.5 mph - N/A   Scattered Clouds